contact:dominique.lefevre@mio.osupytheas.fr, maurice.libes@osupytheas.fr, didier.mallarino@osupytheas.fr
Project:EMSO http://www.emso-fr.org/EMSO-France
Depth: 2436.0 m
Title:EMSO Ligure Ouest : Data MII capteur AQUADOPP
Date,Latitude,Longitude,X_East,Y_North,Z_Up,Amplitude_X,Amplitude_Y,Amplitude_Z,Batterie,SoundSpeed,Heading,Pitch,Roll,Pressure,TIS,Speed,Direction
, degrees North, degrees East, m.s-1, m.s-1,m.s-1, 1, 1, 1, Volt, m.s-1, degree, degree, degree, dbar, degree_C, m.s-1, degree
2023-09-25T00:04:03,42.805,6.029,-0.004,0.001,-0.015,104.0,103.0,103.0,13.3,1505.2,348.1,-0.8,1.8,2471.517,13.29,0.004,284.0
2023-09-25T00:07:03,42.805,6.029,0.018,-0.015,-0.017,103.0,103.0,102.0,13.4,1505.2,337.5,-0.8,1.8,2471.523,13.29,0.023,129.8
2023-09-25T00:10:03,42.805,6.029,-0.002,-0.011,-0.042,103.0,103.0,102.0,13.4,1505.2,354.7,-0.7,1.8,2471.515,13.29,0.011,190.3
2023-09-25T00:13:03,42.805,6.029,0.009,-0.009,-0.034,104.0,102.0,102.0,13.4,1505.2,325.5,-0.8,1.8,2471.497,13.29,0.012,135.0
2023-09-25T00:16:03,42.805,6.029,-0.03,-0.003,-0.028,101.0,103.0,102.0,13.3,1505.2,347.6,-0.8,1.8,2471.481,13.29,0.03,264.3
2023-09-25T00:19:03,42.805,6.029,-0.013,-0.014,-0.033,101.0,104.0,102.0,13.4,1505.2,333.0,-0.7,1.8,2471.51,13.29,0.019,222.9
2023-09-25T00:22:03,42.805,6.029,-0.019,0.018,-0.036,102.0,104.0,103.0,13.4,1505.2,337.3,-0.8,1.8,2471.474,13.29,0.026,313.5
2023-09-25T00:25:03,42.805,6.029,-0.01,-0.004,-0.033,103.0,102.0,101.0,13.3,1505.2,345.9,-0.8,1.8,2471.5,13.29,0.01,248.2
2023-09-25T00:28:03,42.805,6.029,0.015,-0.006,-0.011,103.0,103.0,101.0,13.4,1505.2,332.9,-0.8,1.8,2471.452,13.29,0.016,111.8
2023-09-25T00:31:03,42.805,6.029,0.005,-0.013,-0.026,105.0,102.0,102.0,13.4,1505.2,340.8,-0.8,1.8,2471.454,13.29,0.013,159.0
2023-09-25T00:34:03,42.805,6.029,-0.022,0.0,-0.018,103.0,103.0,102.0,13.3,1505.2,340.8,-0.7,1.8,2471.484,13.29,0.022,270.0
2023-09-25T00:37:03,42.805,6.029,-0.001,-0.01,0.009,103.0,102.0,101.0,13.3,1505.2,351.4,-0.8,1.8,2471.406,13.29,0.01,185.7
2023-09-25T00:40:03,42.805,6.029,-0.022,-0.006,-0.03,103.0,103.0,102.0,13.4,1505.2,338.6,-0.7,1.8,2471.474,13.29,0.022,254.7
2023-09-25T00:43:03,42.805,6.029,-0.002,-0.018,-0.018,103.0,104.0,101.0,13.3,1505.2,337.6,-0.8,1.8,2471.407,13.29,0.018,186.3
2023-09-25T00:46:03,42.805,6.029,0.007,-0.012,-0.002,104.0,104.0,102.0,13.3,1505.2,329.8,-0.7,1.8,2471.436,13.29,0.013,149.7
2023-09-25T00:49:03,42.805,6.029,-0.013,-0.014,-0.02,103.0,102.0,102.0,13.4,1505.2,347.3,-0.8,1.8,2471.456,13.29,0.019,222.9
2023-09-25T00:52:03,42.805,6.029,-0.023,-0.001,-0.028,103.0,103.0,102.0,13.4,1505.2,343.7,-0.7,1.8,2471.515,13.29,0.023,267.5
2023-09-25T00:55:03,42.805,6.029,-0.023,0.01,-0.011,105.0,102.0,101.0,13.3,1505.2,330.2,-0.7,1.8,2471.445,13.29,0.025,293.5
2023-09-25T00:58:03,42.805,6.029,-0.03,-0.007,-0.066,104.0,104.0,101.0,13.4,1505.2,334.7,-0.8,1.8,2471.452,13.29,0.03,256.9
2023-09-25T01:04:03,42.805,6.029,-0.008,-0.005,-0.059,106.0,102.0,102.0,13.4,1505.2,339.0,-0.8,1.8,2471.494,13.29,0.009,238.0
2023-09-25T01:07:03,42.805,6.029,0.003,-0.011,-0.045,103.0,103.0,102.0,13.4,1505.2,328.8,-0.8,1.8,2471.519,13.29,0.011,164.7
2023-09-25T01:10:03,42.805,6.029,-0.032,-0.007,-0.023,103.0,103.0,102.0,13.4,1505.2,338.9,-0.8,1.8,2471.506,13.29,0.032,257.7
2023-09-25T01:13:03,42.805,6.029,-0.015,-0.02,-0.048,103.0,102.0,101.0,13.4,1505.2,338.5,-0.7,1.8,2471.466,13.29,0.025,216.9
2023-09-25T01:16:03,42.805,6.029,0.0,-0.017,-0.041,103.0,103.0,101.0,13.3,1505.2,341.9,-0.8,1.8,2471.454,13.29,0.017,180.0
2023-09-25T01:19:03,42.805,6.029,-0.018,0.003,-0.033,102.0,103.0,101.0,13.4,1505.2,325.2,-0.7,1.8,2471.501,13.29,0.018,279.5
2023-09-25T01:22:03,42.805,6.029,-0.001,0.0,-0.002,103.0,103.0,101.0,13.4,1505.2,348.6,-0.8,1.8,2471.518,13.29,0.001,270.0
2023-09-25T01:25:03,42.805,6.029,-0.005,-0.007,-0.024,103.0,103.0,102.0,13.4,1505.2,334.6,-0.7,1.8,2471.468,13.29,0.008,215.5
2023-09-25T01:28:03,42.805,6.029,-0.017,0.0,-0.015,102.0,103.0,101.0,13.3,1505.2,336.4,-0.8,1.8,2471.455,13.29,0.017,270.0
2023-09-25T01:31:03,42.805,6.029,-0.015,-0.008,-0.018,103.0,102.0,102.0,13.4,1505.2,327.5,-0.8,1.8,2471.485,13.29,0.017,241.9
2023-09-25T01:34:03,42.805,6.029,-0.002,-0.011,-0.017,102.0,105.0,102.0,13.4,1505.2,343.3,-0.8,1.8,2471.494,13.29,0.011,190.3
2023-09-25T01:37:03,42.805,6.029,0.003,-0.01,-0.014,105.0,102.0,102.0,13.4,1505.2,342.9,-0.8,1.8,2471.447,13.29,0.01,163.3
2023-09-25T01:40:03,42.805,6.029,0.018,-0.006,-0.01,103.0,102.0,103.0,13.4,1505.2,341.2,-0.8,1.8,2471.458,13.29,0.018,108.4
2023-09-25T01:43:03,42.805,6.029,-0.021,0.012,-0.025,103.0,103.0,103.0,13.4,1505.2,347.5,-0.8,1.8,2471.488,13.29,0.024,299.7
2023-09-25T01:46:03,42.805,6.029,-0.002,-0.006,-0.013,103.0,104.0,102.0,13.4,1505.2,328.3,-0.7,1.8,2471.465,13.29,0.006,198.4
2023-09-25T01:49:03,42.805,6.029,-0.012,0.004,-0.031,103.0,103.0,102.0,13.4,1505.2,340.1,-0.8,1.8,2471.484,13.29,0.012,288.4
2023-09-25T01:52:03,42.805,6.029,-0.001,0.009,0.011,103.0,103.0,102.0,13.4,1505.2,346.7,-0.8,1.8,2471.47,13.29,0.009,353.7
2023-09-25T01:55:03,42.805,6.029,-0.02,0.0,-0.03,102.0,103.0,102.0,13.4,1505.2,337.2,-0.8,1.8,2471.479,13.29,0.02,270.0
2023-09-25T01:58:03,42.805,6.029,-0.009,0.002,-0.011,104.0,102.0,102.0,13.4,1505.2,334.2,-0.8,1.8,2471.462,13.29,0.009,282.5
2023-09-25T02:04:03,42.805,6.029,-0.008,-0.017,-0.014,102.0,104.0,102.0,13.4,1505.2,347.2,-0.7,1.8,2471.503,13.29,0.018,205.2
2023-09-25T02:07:03,42.805,6.029,-0.012,-0.02,-0.008,102.0,103.0,102.0,13.4,1505.2,336.9,-0.8,1.9,2471.5,13.29,0.023,211.0
2023-09-25T02:10:03,42.805,6.029,-0.038,-0.002,-0.043,104.0,102.0,101.0,13.4,1505.2,326.0,-0.8,1.8,2471.522,13.29,0.038,267.0
2023-09-25T02:13:03,42.805,6.029,-0.019,-0.008,-0.038,103.0,102.0,101.0,13.3,1505.2,345.0,-0.8,1.8,2471.501,13.29,0.02,247.2
2023-09-25T02:16:03,42.805,6.029,-0.007,0.002,-0.03,103.0,103.0,102.0,13.4,1505.2,353.0,-0.8,1.8,2471.535,13.29,0.007,285.9
2023-09-25T02:19:03,42.805,6.029,-0.03,-0.004,-0.044,103.0,102.0,102.0,13.4,1505.2,346.8,-0.8,1.8,2471.513,13.29,0.03,262.4
2023-09-25T02:22:03,42.805,6.029,-0.005,-0.027,-0.039,102.0,102.0,101.0,13.4,1505.2,327.8,-0.7,1.8,2471.485,13.29,0.027,190.5
2023-09-25T02:25:03,42.805,6.029,-0.025,0.001,-0.044,102.0,103.0,102.0,13.4,1505.2,336.3,-0.8,1.8,2471.479,13.29,0.025,272.3
2023-09-25T02:28:03,42.805,6.029,-0.019,-0.01,-0.035,102.0,103.0,101.0,13.4,1505.2,338.2,-0.8,1.8,2471.546,13.29,0.021,242.2
2023-09-25T02:31:03,42.805,6.029,-0.001,0.015,0.005,104.0,103.0,102.0,13.4,1505.2,355.6,-0.8,1.8,2471.481,13.29,0.015,356.2
2023-09-25T02:34:03,42.805,6.029,-0.006,-0.002,-0.04,103.0,102.0,101.0,13.4,1505.2,342.4,-0.8,1.8,2471.495,13.29,0.006,251.6
2023-09-25T02:37:03,42.805,6.029,0.006,0.001,-0.002,103.0,103.0,101.0,13.3,1505.2,333.9,-0.7,1.8,2471.519,13.29,0.006,80.5
2023-09-25T02:40:03,42.805,6.029,-0.006,0.003,-0.02,102.0,104.0,102.0,13.4,1505.2,345.7,-0.8,1.8,2471.487,13.29,0.006,296.6
2023-09-25T02:43:03,42.805,6.029,-0.004,-0.005,-0.027,103.0,103.0,102.0,13.4,1505.2,355.6,-0.8,1.8,2471.496,13.29,0.006,218.7
2023-09-25T02:46:03,42.805,6.029,-0.009,0.002,0.014,104.0,102.0,101.0,13.4,1505.2,347.5,-0.7,1.8,2471.518,13.29,0.009,282.5
2023-09-25T02:49:03,42.805,6.029,-0.011,-0.002,-0.047,104.0,103.0,101.0,13.4,1505.2,339.3,-0.7,1.8,2471.467,13.29,0.011,259.7
2023-09-25T02:52:03,42.805,6.029,0.002,-0.014,-0.015,103.0,103.0,102.0,13.3,1505.2,339.8,-0.8,1.8,2471.503,13.29,0.014,171.9
2023-09-25T02:55:03,42.805,6.029,-0.04,0.004,-0.062,103.0,103.0,103.0,13.4,1505.2,338.4,-0.7,1.8,2471.478,13.29,0.04,275.7
2023-09-25T02:58:03,42.805,6.029,-0.018,0.0,-0.008,103.0,101.0,104.0,13.4,1505.2,337.8,-0.8,1.8,2471.457,13.29,0.018,270.0
2023-09-25T03:04:03,42.805,6.029,-0.033,-0.007,-0.022,104.0,103.0,101.0,13.4,1505.2,337.0,-0.8,1.8,2471.53,13.29,0.033,258.0
2023-09-25T03:07:03,42.805,6.029,0.002,-0.023,-0.002,103.0,103.0,101.0,13.4,1505.2,335.8,-0.8,1.8,2471.534,13.29,0.023,175.0
2023-09-25T03:10:03,42.805,6.029,0.003,-0.009,-0.003,103.0,102.0,102.0,13.3,1505.2,345.4,-0.8,1.8,2471.502,13.29,0.009,161.6
2023-09-25T03:13:03,42.805,6.029,-0.024,0.0,-0.081,102.0,103.0,101.0,13.4,1505.2,334.2,-0.7,1.8,2471.522,13.29,0.024,270.0
2023-09-25T03:16:03,42.805,6.029,-0.018,-0.013,-0.031,104.0,102.0,102.0,13.4,1505.2,346.9,-0.8,1.8,2471.535,13.29,0.022,234.2
2023-09-25T03:19:03,42.805,6.029,-0.01,-0.012,-0.017,103.0,103.0,102.0,13.4,1505.2,347.5,-0.8,1.8,2471.546,13.29,0.015,219.8
2023-09-25T03:22:03,42.805,6.029,-0.006,-0.002,-0.054,104.0,103.0,101.0,13.3,1505.2,355.6,-0.7,1.9,2471.525,13.29,0.006,251.6
2023-09-25T03:25:03,42.805,6.029,-0.008,-0.007,-0.068,104.0,103.0,101.0,13.4,1505.2,351.5,-0.8,1.8,2471.477,13.29,0.01,228.8
2023-09-25T03:28:03,42.805,6.029,-0.003,-0.017,-0.041,102.0,102.0,103.0,13.4,1505.2,330.6,-0.8,1.8,2471.498,13.29,0.017,190.0
2023-09-25T03:31:03,42.805,6.029,0.034,-0.016,-0.011,104.0,101.0,102.0,13.4,1505.2,345.1,-0.7,1.8,2471.492,13.29,0.037,115.2
2023-09-25T03:34:03,42.805,6.029,-0.006,0.009,-0.035,105.0,103.0,100.0,13.3,1505.2,346.9,-0.8,1.8,2471.514,13.29,0.01,326.3
2023-09-25T03:37:03,42.805,6.029,-0.015,0.0,-0.007,102.0,103.0,102.0,13.4,1505.2,342.2,-0.7,1.8,2471.479,13.29,0.015,270.0
2023-09-25T03:40:03,42.805,6.029,-0.014,0.012,-0.02,102.0,102.0,101.0,13.4,1505.2,327.8,-0.8,1.8,2471.454,13.29,0.018,310.6
2023-09-25T03:43:03,42.805,6.029,-0.032,-0.009,-0.064,103.0,102.0,101.0,13.4,1505.2,339.0,-0.8,1.8,2471.468,13.29,0.033,254.3
2023-09-25T03:46:03,42.805,6.029,-0.023,0.001,-0.028,103.0,103.0,102.0,13.3,1505.2,348.9,-0.8,1.8,2471.475,13.29,0.023,272.5
2023-09-25T03:49:03,42.805,6.029,-0.016,-0.003,-0.004,103.0,103.0,101.0,13.4,1505.2,351.8,-0.8,1.8,2471.471,13.29,0.016,259.4
2023-09-25T03:52:03,42.805,6.029,-0.008,0.008,-0.037,104.0,102.0,101.0,13.3,1505.2,350.1,-0.7,1.8,2471.471,13.29,0.011,315.0
2023-09-25T03:55:03,42.805,6.029,-0.009,-0.01,-0.035,103.0,103.0,102.0,13.4,1505.2,333.8,-0.7,1.8,2471.485,13.29,0.013,222.0
2023-09-25T03:58:03,42.805,6.029,0.003,-0.005,-0.031,103.0,102.0,102.0,13.4,1505.2,334.2,-0.7,1.8,2471.498,13.29,0.005,149.0
2023-09-25T04:04:03,42.805,6.029,-0.003,-0.001,-0.039,103.0,102.0,102.0,13.3,1505.2,347.2,-0.8,1.8,2471.556,13.29,0.003,251.6
2023-09-25T04:07:03,42.805,6.029,-0.011,-0.001,-0.019,102.0,104.0,103.0,13.3,1505.2,339.2,-0.8,1.8,2471.564,13.29,0.011,264.8
2023-09-25T04:10:03,42.805,6.029,0.002,-0.002,-0.011,103.0,103.0,101.0,13.4,1505.2,335.1,-0.8,1.8,2471.521,13.29,0.002,135.0
2023-09-25T04:13:03,42.805,6.029,-0.021,0.01,-0.004,103.0,102.0,101.0,13.3,1505.2,348.1,-0.8,1.8,2471.514,13.29,0.023,295.5
2023-09-25T04:16:03,42.805,6.029,-0.017,-0.015,-0.018,105.0,101.0,102.0,13.4,1505.2,345.1,-0.8,1.8,2471.511,13.29,0.022,228.6
2023-09-25T04:19:03,42.805,6.029,-0.011,0.014,-0.012,104.0,103.0,102.0,13.3,1505.2,345.2,-0.8,1.8,2471.529,13.29,0.017,321.8
2023-09-25T04:22:03,42.805,6.029,0.0,-0.003,-0.012,103.0,102.0,102.0,13.3,1505.2,345.9,-0.8,1.8,2471.516,13.29,0.003,180.0
2023-09-25T04:25:03,42.805,6.029,-0.009,0.0,-0.003,103.0,103.0,103.0,13.3,1505.2,334.8,-0.8,1.8,2471.492,13.29,0.009,270.0
2023-09-25T04:28:03,42.805,6.029,-0.005,-0.01,-0.03,104.0,103.0,102.0,13.3,1505.2,339.2,-0.8,1.8,2471.483,13.29,0.011,206.6
2023-09-25T04:31:03,42.805,6.029,-0.014,0.0,-0.016,105.0,103.0,102.0,13.4,1505.2,334.7,-0.8,1.9,2471.462,13.29,0.014,270.0
2023-09-25T04:34:03,42.805,6.029,-0.024,-0.003,0.012,103.0,103.0,101.0,13.3,1505.2,337.6,-0.8,1.8,2471.466,13.29,0.024,262.9
2023-09-25T04:37:03,42.805,6.029,-0.016,-0.004,-0.013,104.0,102.0,103.0,13.4,1505.2,326.8,-0.8,1.8,2471.485,13.29,0.016,256.0
2023-09-25T04:40:03,42.805,6.029,-0.018,-0.005,-0.019,104.0,103.0,102.0,13.3,1505.2,334.4,-0.8,1.8,2471.511,13.29,0.018,254.5
2023-09-25T04:43:03,42.805,6.029,0.0,0.003,-0.028,103.0,102.0,102.0,13.3,1505.2,337.5,-0.8,1.8,2471.515,13.29,0.003,0.0
2023-09-25T04:46:03,42.805,6.029,-0.021,0.005,-0.01,104.0,103.0,101.0,13.4,1505.2,335.7,-0.8,1.8,2471.477,13.29,0.021,283.4
2023-09-25T04:49:03,42.805,6.029,0.0,-0.002,-0.016,102.0,103.0,102.0,13.3,1505.2,355.8,-0.8,1.8,2471.489,13.29,0.002,180.0
2023-09-25T04:52:03,42.805,6.029,-0.021,0.0,-0.043,103.0,102.0,101.0,13.4,1505.2,328.0,-0.8,1.8,2471.467,13.29,0.021,270.0
2023-09-25T04:55:03,42.805,6.029,-0.041,-0.006,-0.016,103.0,102.0,102.0,13.3,1505.2,344.2,-0.8,1.8,2471.496,13.29,0.041,261.7
2023-09-25T04:58:03,42.805,6.029,-0.026,0.025,-0.02,103.0,102.0,102.0,13.3,1505.2,348.9,-0.8,1.8,2471.497,13.29,0.036,313.9
2023-09-25T05:04:03,42.805,6.029,-0.015,0.019,-0.017,104.0,102.0,101.0,13.4,1505.2,328.2,-0.8,1.8,2471.51,13.29,0.024,321.7
2023-09-25T05:07:03,42.805,6.029,-0.005,0.009,-0.03,102.0,103.0,103.0,13.3,1505.2,344.0,-0.8,1.8,2471.479,13.29,0.01,330.9
2023-09-25T05:10:03,42.805,6.029,-0.01,0.007,-0.021,103.0,103.0,101.0,13.3,1505.2,335.1,-0.7,1.8,2471.537,13.29,0.012,305.0
2023-09-25T05:13:03,42.805,6.029,-0.01,0.013,-0.024,103.0,103.0,102.0,13.4,1505.2,348.6,-0.8,1.8,2471.511,13.29,0.016,322.4
2023-09-25T05:16:03,42.805,6.029,-0.032,0.041,0.011,103.0,101.0,101.0,13.3,1505.2,347.5,-0.7,1.8,2471.523,13.29,0.052,322.0
2023-09-25T05:19:03,42.805,6.029,-0.04,0.017,-0.049,102.0,102.0,102.0,13.4,1505.2,344.5,-0.8,1.8,2471.494,13.29,0.043,293.0
2023-09-25T05:22:03,42.805,6.029,-0.03,0.015,-0.013,103.0,102.0,101.0,13.4,1505.2,350.9,-0.8,1.8,2471.473,13.29,0.033,296.6
2023-09-25T05:25:03,42.805,6.029,-0.014,-0.009,-0.021,102.0,101.0,102.0,13.4,1505.2,325.8,-0.7,1.8,2471.45,13.29,0.016,237.3
2023-09-25T05:28:03,42.805,6.029,-0.007,-0.006,-0.059,103.0,103.0,101.0,13.3,1505.2,346.2,-0.8,1.8,2471.484,13.29,0.009,229.4
2023-09-25T05:31:03,42.805,6.029,-0.029,0.009,-0.001,103.0,103.0,101.0,13.3,1505.2,336.3,-0.8,1.8,2471.527,13.29,0.03,287.2
2023-09-25T05:34:03,42.805,6.029,-0.008,-0.001,-0.02,104.0,103.0,102.0,13.4,1505.2,333.0,-0.8,1.8,2471.522,13.29,0.008,262.9
2023-09-25T05:37:03,42.805,6.029,-0.008,0.021,-0.015,103.0,103.0,102.0,13.4,1505.2,354.1,-0.8,1.8,2471.499,13.29,0.022,339.1
2023-09-25T05:40:03,42.805,6.029,-0.015,0.007,-0.031,102.0,103.0,101.0,13.3,1505.2,350.3,-0.8,1.8,2471.493,13.29,0.016,295.0
2023-09-25T05:43:03,42.805,6.029,-0.025,0.026,-0.011,103.0,102.0,103.0,13.3,1505.2,338.2,-0.8,1.8,2471.482,13.29,0.036,316.1
2023-09-25T05:46:03,42.805,6.029,-0.021,0.024,-0.041,102.0,103.0,101.0,13.4,1505.2,347.0,-0.7,1.8,2471.517,13.29,0.031,318.8
2023-09-25T05:49:03,42.805,6.029,-0.026,0.026,-0.035,103.0,102.0,102.0,13.4,1505.2,336.8,-0.8,1.8,2471.512,13.29,0.036,315.0
2023-09-25T05:52:03,42.805,6.029,-0.014,0.008,-0.02,103.0,103.0,102.0,13.4,1505.2,333.8,-0.8,1.8,2471.496,13.29,0.016,299.7
2023-09-25T05:55:03,42.805,6.029,-0.023,-0.008,-0.032,102.0,103.0,101.0,13.3,1505.2,354.0,-0.8,1.8,2471.505,13.29,0.024,250.8
2023-09-25T05:58:03,42.805,6.029,-0.007,0.009,-0.028,105.0,100.0,103.0,13.4,1505.2,327.6,-0.8,1.8,2471.484,13.29,0.011,322.1
2023-09-25T06:04:03,42.805,6.029,-0.006,0.019,-0.039,103.0,103.0,103.0,13.4,1505.2,336.2,-0.8,1.8,2471.535,13.29,0.019,342.5
2023-09-25T06:07:03,42.805,6.029,0.005,0.005,-0.035,103.0,102.0,102.0,13.4,1505.2,352.1,-0.8,1.8,2471.483,13.29,0.007,45.0
2023-09-25T06:10:03,42.805,6.029,-0.013,-0.007,-0.001,103.0,103.0,101.0,13.4,1505.2,337.0,-0.7,1.8,2471.51,13.29,0.014,241.7
2023-09-25T06:13:03,42.805,6.029,-0.003,-0.004,-0.027,104.0,103.0,102.0,13.4,1505.2,329.1,-0.8,1.8,2471.517,13.29,0.005,216.9
2023-09-25T06:16:03,42.805,6.029,0.0,0.017,-0.009,103.0,104.0,101.0,13.4,1505.2,348.0,-0.7,1.8,2471.496,13.29,0.017,0.0
2023-09-25T06:19:03,42.805,6.029,0.008,0.034,0.0,103.0,102.0,104.0,13.4,1505.2,343.4,-0.8,1.8,2471.502,13.29,0.034,13.2
2023-09-25T06:22:03,42.805,6.029,-0.004,-0.019,-0.042,103.0,105.0,102.0,13.3,1505.2,332.6,-0.8,1.8,2471.517,13.29,0.019,191.9
2023-09-25T06:25:03,42.805,6.029,-0.022,0.006,-0.013,102.0,103.0,102.0,13.4,1505.2,330.7,-0.7,1.8,2471.5,13.29,0.022,285.3
2023-09-25T06:28:03,42.805,6.029,-0.008,0.0,-0.032,103.0,102.0,102.0,13.4,1505.2,335.1,-0.8,1.8,2471.477,13.29,0.008,270.0
2023-09-25T06:31:03,42.805,6.029,-0.021,0.012,-0.01,102.0,103.0,101.0,13.4,1505.2,339.1,-0.8,1.8,2471.493,13.29,0.024,299.7
2023-09-25T06:34:03,42.805,6.029,-0.022,0.006,-0.044,103.0,103.0,102.0,13.4,1505.2,338.0,-0.7,1.8,2471.46,13.29,0.022,285.3
2023-09-25T06:37:03,42.805,6.029,-0.029,0.023,-0.021,104.0,103.0,102.0,13.4,1505.2,333.0,-0.8,1.8,2471.476,13.29,0.037,308.4
2023-09-25T06:40:03,42.805,6.029,0.002,-0.004,-0.016,103.0,103.0,102.0,13.4,1505.2,333.0,-0.8,1.8,2471.478,13.29,0.004,153.4
2023-09-25T06:43:03,42.805,6.029,-0.026,0.004,-0.047,103.0,103.0,101.0,13.4,1505.2,343.6,-0.8,1.8,2471.453,13.29,0.026,278.7
2023-09-25T06:46:03,42.805,6.029,-0.007,0.02,-0.021,104.0,104.0,102.0,13.3,1505.2,338.0,-0.8,1.8,2471.482,13.29,0.021,340.7
2023-09-25T06:49:03,42.805,6.029,-0.014,0.012,-0.046,102.0,103.0,101.0,13.4,1505.2,342.6,-0.7,1.8,2471.467,13.29,0.018,310.6
2023-09-25T06:52:03,42.805,6.029,0.014,0.021,0.004,102.0,103.0,101.0,13.3,1505.2,344.3,-0.7,1.8,2471.469,13.29,0.025,33.7
2023-09-25T06:55:03,42.805,6.029,-0.004,0.007,0.008,103.0,104.0,102.0,13.4,1505.2,352.1,-0.8,1.8,2471.501,13.29,0.008,330.3
2023-09-25T06:58:03,42.805,6.029,-0.004,0.029,-0.015,102.0,102.0,102.0,13.3,1505.2,330.2,-0.7,1.8,2471.486,13.29,0.029,352.2
2023-09-25T07:04:03,42.805,6.029,-0.037,0.012,-0.029,103.0,102.0,102.0,13.4,1505.2,326.8,-0.8,1.8,2471.5,13.29,0.038,288.0
2023-09-25T07:07:03,42.805,6.029,-0.026,0.014,0.007,102.0,103.0,102.0,13.4,1505.2,335.5,-0.7,1.8,2471.482,13.29,0.029,298.3
2023-09-25T07:10:03,42.805,6.029,-0.018,0.016,-0.02,102.0,103.0,101.0,13.3,1505.2,335.6,-0.8,1.8,2471.507,13.29,0.024,311.6
2023-09-25T07:13:03,42.805,6.029,-0.023,0.041,0.001,104.0,102.0,102.0,13.4,1505.2,341.5,-0.8,1.8,2471.489,13.29,0.047,330.7
2023-09-25T07:16:03,42.805,6.029,-0.004,0.012,-0.016,103.0,103.0,101.0,13.4,1505.2,344.0,-0.8,1.8,2471.486,13.29,0.012,341.6
2023-09-25T07:19:03,42.805,6.029,-0.009,0.0,-0.066,104.0,102.0,101.0,13.3,1505.2,347.0,-0.8,1.8,2471.455,13.29,0.009,270.0
2023-09-25T07:22:03,42.805,6.029,0.001,0.028,0.002,103.0,102.0,102.0,13.3,1505.2,332.2,-0.7,1.8,2471.479,13.29,0.028,2.0
2023-09-25T07:25:03,42.805,6.029,0.007,0.0,-0.012,104.0,103.0,102.0,13.4,1505.2,344.2,-0.8,1.8,2471.458,13.29,0.007,90.0
2023-09-25T07:28:03,42.805,6.029,0.003,0.003,-0.005,103.0,103.0,101.0,13.4,1505.2,352.0,-0.7,1.8,2471.443,13.29,0.004,45.0
2023-09-25T07:31:03,42.805,6.029,-0.004,0.013,-0.023,103.0,103.0,103.0,13.3,1505.2,339.5,-0.8,1.8,2471.463,13.29,0.013,342.9
2023-09-25T07:34:03,42.805,6.029,-0.013,-0.006,-0.039,104.0,101.0,102.0,13.3,1505.2,334.2,-0.7,1.8,2471.457,13.29,0.014,245.2
2023-09-25T07:37:03,42.805,6.029,-0.004,0.021,-0.008,103.0,103.0,101.0,13.4,1505.2,333.9,-0.8,1.8,2471.421,13.29,0.021,349.2
2023-09-25T07:40:03,42.805,6.029,0.002,0.041,0.011,102.0,103.0,102.0,13.4,1505.2,338.5,-0.8,1.8,2471.412,13.29,0.041,2.8
2023-09-25T07:43:03,42.805,6.029,0.012,-0.002,-0.041,105.0,103.0,102.0,13.3,1505.2,340.9,-0.8,1.8,2471.425,13.29,0.012,99.5
2023-09-25T07:46:03,42.805,6.029,0.001,0.018,-0.021,102.0,102.0,102.0,13.3,1505.2,351.0,-0.8,1.9,2471.41,13.29,0.018,3.2
2023-09-25T07:49:03,42.805,6.029,-0.006,0.011,0.012,102.0,102.0,101.0,13.4,1505.2,327.4,-0.8,1.8,2471.462,13.29,0.012,331.4
2023-09-25T07:52:03,42.805,6.029,-0.007,0.035,-0.009,102.0,102.0,102.0,13.4,1505.2,350.3,-0.8,1.8,2471.415,13.29,0.035,348.7
2023-09-25T07:55:03,42.805,6.029,-0.015,0.004,-0.027,103.0,102.0,101.0,13.3,1505.2,335.5,-0.8,1.8,2471.419,13.29,0.015,284.9
2023-09-25T07:58:03,42.805,6.029,-0.011,-0.001,-0.029,102.0,104.0,101.0,13.3,1505.2,337.4,-0.8,1.8,2471.444,13.29,0.011,264.8
2023-09-25T08:04:03,42.805,6.029,0.009,0.005,-0.003,103.0,102.0,101.0,13.3,1505.2,335.4,-0.8,1.9,2471.476,13.29,0.01,60.9
2023-09-25T08:07:03,42.805,6.029,-0.019,0.005,-0.047,103.0,103.0,102.0,13.4,1505.2,346.4,-0.8,1.8,2471.479,13.29,0.019,284.7
2023-09-25T08:10:03,42.805,6.029,-0.012,0.015,-0.022,102.0,103.0,101.0,13.4,1505.2,337.0,-0.7,1.8,2471.533,13.29,0.019,321.3
2023-09-25T08:13:03,42.805,6.029,-0.015,0.02,-0.019,103.0,102.0,101.0,13.4,1505.2,336.0,-0.7,1.8,2471.45,13.29,0.025,323.1
2023-09-25T08:16:03,42.805,6.029,-0.026,0.015,-0.036,104.0,103.0,101.0,13.4,1505.2,346.6,-0.8,1.8,2471.469,13.29,0.03,300.0
2023-09-25T08:19:03,42.805,6.029,-0.006,0.013,-0.008,101.0,102.0,102.0,13.3,1505.2,327.5,-0.8,1.8,2471.417,13.29,0.014,335.2
2023-09-25T08:22:03,42.805,6.029,-0.017,0.007,-0.022,103.0,102.0,102.0,13.4,1505.2,334.3,-0.8,1.8,2471.463,13.29,0.018,292.4
2023-09-25T08:25:03,42.805,6.029,-0.006,0.016,0.01,103.0,103.0,100.0,13.4,1505.2,335.1,-0.8,1.8,2471.443,13.29,0.017,339.4
2023-09-25T08:28:03,42.805,6.029,-0.009,0.026,-0.025,102.0,103.0,106.0,13.4,1505.2,354.7,-0.8,1.8,2471.464,13.29,0.027,340.9
2023-09-25T08:31:03,42.805,6.029,-0.005,0.015,-0.032,103.0,102.0,102.0,13.3,1505.2,348.6,-0.7,1.8,2471.469,13.29,0.015,341.6
2023-09-25T08:34:03,42.805,6.029,-0.009,0.029,-0.002,103.0,101.0,101.0,13.4,1505.2,330.2,-0.8,1.8,2471.41,13.29,0.03,342.8
2023-09-25T08:37:03,42.805,6.029,0.014,0.002,0.002,102.0,102.0,101.0,13.4,1505.2,338.2,-0.8,1.8,2471.426,13.29,0.014,81.9
2023-09-25T08:40:03,42.805,6.029,-0.026,0.038,-0.032,103.0,103.0,101.0,13.3,1505.2,335.5,-0.7,1.8,2471.398,13.29,0.046,325.6
2023-09-25T08:43:03,42.805,6.029,-0.006,0.007,-0.007,103.0,103.0,101.0,13.4,1505.2,340.9,-0.8,1.8,2471.411,13.29,0.009,319.4
2023-09-25T08:46:03,42.805,6.029,-0.013,0.011,-0.009,103.0,103.0,101.0,13.4,1505.2,336.8,-0.8,1.8,2471.471,13.29,0.017,310.2
2023-09-25T08:49:03,42.805,6.029,-0.006,-0.003,-0.03,103.0,105.0,101.0,13.3,1505.2,334.3,-0.7,1.8,2471.465,13.29,0.006,243.4
2023-09-25T08:52:03,42.805,6.029,0.0,-0.012,-0.009,104.0,102.0,102.0,13.4,1505.2,347.5,-0.8,1.8,2471.41,13.29,0.012,180.0
2023-09-25T08:55:03,42.805,6.029,-0.012,0.017,-0.031,103.0,103.0,102.0,13.4,1505.2,343.3,-0.8,1.8,2471.432,13.29,0.02,324.8
2023-09-25T08:58:03,42.805,6.029,-0.01,0.025,-0.032,102.0,103.0,101.0,13.3,1505.2,348.6,-0.7,1.8,2471.413,13.29,0.026,338.2
2023-09-25T09:04:03,42.805,6.029,-0.008,0.008,-0.01,103.0,103.0,102.0,13.3,1505.2,347.6,-0.8,1.8,2471.44,13.29,0.011,315.0
2023-09-25T09:07:03,42.805,6.029,-0.021,0.008,-0.029,103.0,103.0,101.0,13.3,1505.2,338.0,-0.8,1.8,2471.466,13.29,0.022,290.9
2023-09-25T09:10:03,42.805,6.029,-0.013,0.024,0.01,102.0,102.0,101.0,13.4,1505.2,346.6,-0.8,1.8,2471.442,13.29,0.027,331.6
2023-09-25T09:13:03,42.805,6.029,-0.023,0.012,-0.038,103.0,102.0,102.0,13.3,1505.2,330.2,-0.8,1.8,2471.456,13.29,0.025,297.6
2023-09-25T09:16:03,42.805,6.029,0.0,0.013,-0.005,103.0,102.0,101.0,13.4,1505.2,331.0,-0.8,1.8,2471.462,13.29,0.013,0.0
2023-09-25T09:19:03,42.805,6.029,-0.019,0.01,0.012,104.0,103.0,102.0,13.4,1505.2,336.5,-0.7,1.8,2471.498,13.29,0.021,297.8
2023-09-25T09:22:03,42.805,6.029,-0.002,0.014,-0.03,103.0,102.0,102.0,13.4,1505.2,343.4,-0.8,1.8,2471.418,13.29,0.014,351.9
2023-09-25T09:25:03,42.805,6.029,-0.022,0.03,-0.011,107.0,103.0,101.0,13.4,1505.2,338.7,-0.8,1.8,2471.456,13.29,0.037,323.7
2023-09-25T09:28:03,42.805,6.029,-0.006,0.005,-0.016,101.0,102.0,103.0,13.3,1505.2,339.4,-0.8,1.8,2471.436,13.29,0.007,309.8
2023-09-25T09:31:03,42.805,6.029,-0.001,0.016,-0.023,104.0,102.0,103.0,13.4,1505.2,353.6,-0.8,1.8,2471.455,13.29,0.016,356.4
2023-09-25T09:34:03,42.805,6.029,-0.019,0.005,-0.025,102.0,104.0,103.0,13.3,1505.2,337.8,-0.8,1.8,2471.442,13.29,0.019,284.7
2023-09-25T09:37:03,42.805,6.029,-0.01,0.017,-0.005,101.0,103.0,102.0,13.4,1505.2,331.8,-0.8,1.8,2471.439,13.29,0.019,329.5
2023-09-25T09:40:03,42.805,6.029,0.003,0.012,-0.002,102.0,104.0,101.0,13.3,1505.2,345.4,-0.8,1.8,2471.416,13.29,0.012,14.0
2023-09-25T09:43:03,42.805,6.029,0.019,0.012,-0.01,102.0,102.0,102.0,13.3,1505.2,340.3,-0.8,1.8,2471.452,13.29,0.022,57.7
2023-09-25T09:46:03,42.805,6.029,-0.025,0.009,-0.023,103.0,103.0,102.0,13.4,1505.2,346.2,-0.8,1.8,2471.39,13.29,0.026,289.8
2023-09-25T09:49:03,42.805,6.029,0.011,0.011,-0.019,103.0,103.0,102.0,13.4,1505.2,356.8,-0.8,1.8,2471.435,13.29,0.015,45.0
2023-09-25T09:52:03,42.805,6.029,-0.013,0.02,-0.03,102.0,104.0,101.0,13.4,1505.2,331.8,-0.8,1.8,2471.422,13.29,0.023,327.0
2023-09-25T09:55:03,42.805,6.029,0.0,0.018,-0.003,104.0,103.0,102.0,13.4,1505.2,348.2,-0.8,1.8,2471.376,13.29,0.018,0.0